Preview of NWS' New Version of Forecast
This preview is not operational and should not be used for support decisions.

Regional Weather Roundup (RWR)

Issued by National Weather Service (NWS)

                            
000
ASUS44 KJAN 220710
RWRMS 

MISSISSIPPI HOURLY WEATHER ROUNDUP
NATIONAL WEATHER SERVICE JACKSON MS
200 AM CDT SUN SEP 22 2019

NOTE: "FAIR: INDICATES FEW OR NO CLOUDS BELOW 12,000 FEET WITH NO
SIGNIFICANT WEATHER AND/OR OBSTRUCTIONS TO VISIBILITY.

MSZ001>002-007>008-010>013-018>021-025>028-034>036-220800-
NORTHWEST MISSISSIPPI
  
CITY           SKY/WX    TMP DP  RH WIND       PRES   REMARKS
BATESVILLE       N/A    N/A N/A N/A CALM      30.11F                  
CLARKSDALE       N/A     70  64  83 SE5       30.11S                  
CLEVELAND      FAIR      74  63  69 S8        30.10S                  
GREENWOOD      FAIR      73  61  65 S3        30.12R                  
GREENVILLE     FAIR      71  64  78 S6        30.10R                  
OLIVE BRANCH   PTCLDY    72  59  64 S7        30.11F                  
OXFORD         FAIR      66  59  77 SE5       30.14F                  
TUNICA           N/A     68  61  77 SE8       30.11S                  
WINONA         FAIR      65  63  91 CALM      30.13S                  
$$

MSZ003>006-009-014>017-022>024-029>033-037>039-220800-
NORTHEAST MISSISSIPPI
  
CITY           SKY/WX    TMP DP  RH WIND       PRES   REMARKS
ABERDEEN       FAIR      59  43  55 CALM      30.15S                  
COLUMBUS AFB   FAIR      63  62  95 SE3       30.13S                  
CORINTH        FAIR      63  61  94 CALM      30.14S                  
GOLDN TRIANGLE FAIR      70  63  78 SE6       30.14F                  
STARKVILLE     FAIR      64  61  88 S3        30.14F                  
TUPELO         FAIR      67  61  81 CALM      30.14R                  
$$

MSZ040-058-220800-
CENTRAL MISSISSIPPI
  
CITY           SKY/WX    TMP DP  RH WIND       PRES   REMARKS
JACKSON INTL   FAIR      72  67  84 CALM      30.12R                  
JACKSON HAWKNS FAIR      73  68  84 CALM      30.13R                  
MADISON        FAIR      70  70 100 CALM      30.14R                  
MERIDIAN KEY   FAIR      68  64  87 CALM      30.15R                  
MERIDIAN NAS   FAIR      67  61  81 CALM      30.15S                  
RAYMOND        PTSUNNY   72  72 100 CALM      30.12R                  
VICKSBURG VKS  CLOUDY    75  73  94 CALM      30.11S                  
$$

MSZ059>079-220800-
SOUTH MISSISSIPPI
  
CITY           SKY/WX    TMP DP  RH WIND       PRES   REMARKS
BROOKHAVEN     CLOUDY    73  70  88 NE6       30.14R                  
HATTIESBURG    FAIR      68  66  93 CALM      30.13F                  
LAUREL         SUNNY     68  67  94 CALM      30.14S                  
MCCOMB         FAIR      73  69  87 SE5       30.11F                  
NATCHEZ        FAIR      74  70  87 S3        30.12R                  
PINE BELT      FAIR      67  66  97 CALM      30.14S                  
$$

MSZ080>082-220800-
COASTAL MISSISSIPPI
  
CITY           SKY/WX    TMP DP  RH WIND       PRES   REMARKS
BILOXI         FAIR      74  69  82 SE9       30.10F                  
PASCAGOULA     FAIR      66  64  93 CALM      30.11F FOG              
GULFPORT       FAIR      81  65  58 SE12      30.10F                  
$$

LAZ007>009-015>016-023>026-220800-
NORTHEAST LOUISIANA
  
CITY           SKY/WX    TMP DP  RH WIND       PRES   REMARKS
BASTROP        FAIR      73  72  94 CALM      30.11S                  
TALLULAH/VBURG MOCLDY    77  69  76 S5        30.11R                  
VIDALIA        CLOUDY    76  71  84 CALM      30.10R                  
$$